XRISM

导读

XRISM是由日本宇宙航空研究开发机构主导,与美国航空航天局合作研发的X射线天文卫星,于2023年9月6日在日本种子岛宇宙中心发射升空。该卫星延续了2016年解体的“瞳”卫星的任务,配备高分辨率X射线光谱仪,将对黑洞、星系团、超新星遗迹等高能天体开展观测,解析天体X射线光谱,探究天体构成与运动,填补X射线天文学的观测空白,推动人类对极端宇宙环境的认知。

基本信息
目录编号:
57800
目录名称:
XRISM
国际标识:
2023-137A
轨道中心:
EARTH
卫星名称:
XRISM
卫星全名:
--
卫星状态:
在轨 (已飞行1094 天)
发射日期:
2023-09-06 UTC
国别 :
日本 (JP)
星等 :
--
轨道信息
数据来源 国际轨道数据
星历时间: 2026-09-04T13:41:30+0800
13小时前
查看轨道信息
半长轴: 6905.094km
偏心率: 0.0007324
轨道倾角: 31.001°
近地点辐角 41.496°
升交点赤经 207.313°
平近点角 318.623°
近地点: 521.899km
远地点: 532.015km
周期: 95.173分钟
每日圈数: 15.13033
详细信息
使用方式:
暂无
2D轨道图
3D轨道图
轨道高度分析图
轨道倾角分析图
轨道综合分析图
查看轨道综合分析图